Location: Archemont
(49.1579°N, 1.7598°E)
Time: 09:51:24
(UTC+00:00)

deb Explorer IX - Pass Details

Date: 22 April 2024
Orbit: 513 x 891 km, 38.7° (Epoch: 23 May)

Event Time Altitude Azimuth Distance (km) Brightness Sun altitude
Rises 13:44:03 0° 261° (W) 3,477 ? 46.6°
Reaches altitude 10° 13:47:01 10° 249° (WSW) 2,562 ? 46.3°
Maximum altitude 13:51:57 25° 196° (SSW) 1,715 ? 45.7°
Drops below altitude 10° 13:56:53 10° 143° (SE) 2,549 ? 45.1°
Sets 13:59:49 0° 131° (SE) 3,456 ? 44.8°
